This is the latest recevied weather packets stored in our database for station/object KG7FOQ-13. If no packets are shown the sender has not sent any weather packets the latest 10 day(s).
| Time | Temp. | Humidity | Pressure | Rain* | Wind** | Luminosity | Snow |
|---|---|---|---|---|---|---|---|
| 1788051955 | 23.33° C | 41% | 1013 hPa | 0 mm | - | - | - |
| 1788051655 | 23.89° C | 40% | 1012.9 hPa | 0 mm | - | - | - |
| 1788051351 | 23.33° C | 40% | 1012.7 hPa | 0 mm | - | - | - |
| 1788050750 | 22.78° C | 43% | 1012.3 hPa | 0 mm | - | - | - |
| 1788050450 | 23.33° C | 43% | 1012.3 hPa | 0 mm | - | - | - |
| 1788050149 | 23.33° C | 43% | 1012.3 hPa | 0 mm | - | - | - |
| 1788049849 | 23.33° C | 41% | 1012.5 hPa | 0 mm | - | - | - |
| 1788049639 | 23.33° C | 41% | 1012.6 hPa | 0 mm | - | - | - |
| 1788049548 | 23.33° C | 41% | 1012.6 hPa | 0 mm | - | - | - |
| 1788049248 | 23.89° C | 39% | 1012.6 hPa | 0 mm | - | - | - |
| 1788048947 | 23.89° C | 38% | 1012.5 hPa | 0 mm | - | - | - |
| 1788048645 | 24.44° C | 37% | 1012.3 hPa | 0 mm | - | - | - |
| 1788048344 | 23.89° C | 38% | 1012.9 hPa | 0 mm | - | - | - |
| 1788048043 | 23.89° C | 37% | 1012.7 hPa | 0 mm | - | - | - |
| 1788047743 | 24.44° C | 35% | 1012.7 hPa | 0 mm | - | - | - |
| 1788047443 | 24.44° C | 32% | 1012.5 hPa | 0 mm | - | - | - |
| 1788047142 | 26.11° C | 30% | 1012.3 hPa | 0 mm | - | - | - |
| 1788046841 | 26.67° C | 31% | 1012.1 hPa | 0 mm | - | - | - |
| 1788046541 | 26.11° C | 31% | 1012.2 hPa | 0 mm | - | - | - |
| 1788046240 | 26.11° C | 31% | 1012.1 hPa | 0 mm | - | - | - |
| 1788045940 | 26.11° C | 32% | 1012 hPa | 0 mm | - | - | - |
| 1788045338 | 26.67° C | 30% | 1012.1 hPa | 0 mm | - | - | - |
| 1788045037 | 26.67° C | 31% | 1012.2 hPa | 0 mm | - | - | - |
| 1788044737 | 27.22° C | 29% | 1012.3 hPa | 0 mm | - | - | - |
| 1788044436 | 26.67° C | 28% | 1012.3 hPa | 0 mm | - | - | - |
* Rain latest hour (hover to see other rain measurements)
** Current wind speed in m/s (hover to see current wind gust speed)